Snowfall_Accumulation
0.0 0.0 0.0 0.0 0.0 0.0 0.0 0.0 0.0 0.2 0.0 0.0 0.0 0.0 0.0 0.0 0.0 0.0 0.0 nan nan nan nan nan nan nan nan nan nan nan nan nan nan nan nan nan nan nan
0.0 0.0 0.0 0.0 0.0 0.0 0.0 0.0 0.0 0.1 0.2 0.0 0.0 0.0 0.0 0.0 0.0 0.0 0.0 nan nan nan nan nan nan nan nan nan nan nan nan nan nan nan nan nan nan nan
0.0 0.0 0.0 0.0 0.0 0.0 0.0 0.0 0.0 0.0 0.3 0.0 0.0 0.0 0.0 0.0 0.0 0.0 0.0 0.0 0.0 nan nan nan nan nan nan nan nan nan nan nan nan nan nan nan nan nan
0.0 0.0 0.0 0.0 0.0 0.0 0.0 0.0 0.0 0.0 0.0 0.0 0.0 0.0 0.0 0.0 0.0 0.0 0.0 0.0 0.0 nan nan nan nan nan nan nan nan nan nan nan nan nan nan nan nan nan
0.0 0.0 0.0 0.0 0.0 0.0 0.0 0.0 0.0 0.0 0.0 0.1 0.0 0.0 0.0 0.0 0.0 0.0 0.0 0.0 0.0 nan nan nan nan nan nan nan nan nan nan nan nan nan nan nan nan nan
0.0 0.0 0.0 0.0 0.0 0.0 0.0 0.0 0.0 0.0 0.0 0.0 0.0 0.0 0.0 0.0 0.0 0.0 0.0 0.0 0.0 0.0 nan nan nan nan nan nan nan nan nan nan nan nan nan nan nan nan
0.0 0.0 0.0 nan nan nan 0.0 0.0 0.0 0.0 0.0 0.0 0.0 0.0 0.0 0.0 0.0 0.0 0.0 0.0 0.0 0.0 0.0 0.0 0.0 0.0 0.0 nan nan nan nan nan nan nan nan nan nan nan
0.2 0.1 0.0 0.0 0.0 nan nan nan nan 0.2 0.2 0.3 0.1 0.1 0.0 0.1 0.0 0.0 0.0 0.0 0.5 0.0 0.0 0.0 0.0 0.0 0.0 0.0 nan nan nan nan nan nan nan nan nan nan
0.2 0.1 0.1 0.0 nan 0.0 nan nan nan nan nan 0.2 0.5 0.3 0.2 0.0 0.0 0.1 0.0 0.1 0.2 0.0 0.0 0.0 0.0 0.0 0.0 0.0 nan nan nan nan nan nan nan nan nan nan
0.2 0.1 0.1 0.1 0.1 0.1 0.1 0.1 0.1 0.0 0.0 0.0 0.0 0.0 0.0 0.0 0.0 0.0 0.0 0.0 0.0 0.0 0.0 0.8 0.0 0.0 0.0 0.0 nan nan nan nan nan nan nan nan nan nan
0.2 0.2 0.1 0.2 nan nan 0.3 0.9 0.3 0.1 nan nan nan nan nan nan nan 0.3 1.5 2.4 0.9 0.0 0.0 0.4 0.0 0.1 0.0 0.0 0.1 nan nan nan nan nan nan nan nan nan
0.4 0.2 nan 0.1 nan nan 0.2 0.5 1.2 0.2 0.1 0.0 0.0 0.0 nan nan nan 0.0 0.8 2.8 1.1 1.1 0.0 0.7 0.2 0.3 1.1 0.1 0.0 0.0 0.0 nan nan nan nan nan nan 0.0
0.8 0.7 0.2 nan nan nan nan 0.3 0.5 0.1 0.3 0.5 0.3 0.1 0.1 0.0 0.0 0.0 0.0 0.2 1.0 1.5 0.0 0.5 1.7 0.9 1.7 1.0 0.2 0.1 0.0 0.0 0.0 0.0 nan nan nan 0.0
0.8 0.4 0.2 nan nan nan nan nan nan nan 0.8 1.2 0.8 0.8 0.4 0.2 0.1 0.1 0.0 0.0 0.0 0.1 0.0 0.0 7.1 1.3 4.8 3.6 1.8 0.2 0.1 0.0 0.0 0.0 0.0 nan nan nan
0.5 0.3 nan nan nan nan nan nan nan 0.9 1.4 3.0 1.9 0.8 0.3 0.3 0.4 0.7 0.3 0.2 0.1 0.1 0.1 0.0 1.1 0.7 2.6 5.1 3.1 1.5 0.6 0.3 0.2 0.2 0.1 0.1 0.1 0.0
nan 0.7 nan 0.4 nan nan 0.4 0.4 0.5 0.5 1.0 1.2 1.2 1.0 1.2 1.7 1.5 0.7 1.8 1.2 3.2 1.9 0.3 0.1 0.1 0.2 6.2 2.5 2.5 3.3 1.0 3.4 0.3 0.2 0.2 0.1 0.1 0.0
nan 1.9 2.7 2.8 2.8 2.4 2.0 1.3 1.5 1.7 2.6 2.2 2.5 1.9 1.7 1.7 1.8 1.1 1.7 2.1 5.0 3.2 3.6 2.1 0.2 0.2 1.2 2.2 7.9 1.9 1.4 1.4 0.3 0.4 0.5 0.6 0.2 0.1
8.1 9.4 7.4 5.4 4.6 3.3 2.8 2.8 2.3 2.3 2.2 2.4 2.8 2.8 3.5 3.8 3.7 3.7 3.3 4.3 4.8 2.7 3.5 3.2 3.8 5.8 3.6 1.6 1.4 1.5 0.9 1.0 0.5 0.4 0.5 2.1 0.7 0.1
7.7 6.7 6.9 7.3 7.5 6.4 4.9 4.2 4.7 2.9 1.6 3.8 4.2 3.9 4.0 4.0 4.3 4.5 3.7 3.2 3.5 2.6 2.4 3.2 4.7 6.3 10.8 7.0 0.7 nan 3.1 1.4 1.5 1.7 0.6 1.3 1.4 0.4
6.1 6.1 6.6 8.0 9.2 9.2 8.2 8.0 6.3 5.4 5.2 4.7 4.7 4.7 5.4 6.7 6.7 5.6 3.9 4.9 3.8 3.8 4.1 3.4 4.2 4.7 10.2 8.2 9.4 2.3 nan 1.9 1.9 2.2 3.4 1.0 0.4 nan
5.6 7.0 5.6 7.4 9.8 9.8 9.4 8.7 7.9 7.3 7.1 8.3 6.3 6.5 5.9 7.0 6.2 4.2 3.8 2.7 nan 6.4 7.8 3.6 1.8 nan 8.3 11.6 14.9 3.5 1.2 nan 0.3 2.7 3.4 4.8 3.5 1.3
5.0 6.2 7.7 7.0 8.2 9.5 10.1 10.0 10.5 9.9 8.6 7.1 6.9 6.2 5.2 5.5 7.2 4.4 3.3 5.0 2.7 2.7 4.3 3.0 3.1 3.8 7.2 7.2 6.1 4.1 3.0 1.2 nan nan nan nan 11.3 18.6
5.2 4.9 6.3 7.1 6.8 7.6 9.2 10.9 11.6 10.6 9.2 8.9 8.7 6.9 5.9 9.1 3.1 3.4 3.4 3.2 4.4 5.3 4.2 7.4 4.6 4.2 4.5 5.0 7.6 7.4 5.5 3.8 2.8 3.3 3.7 nan nan nan
Water_Equivalent
0.00 0.00 0.00 0.00 0.00 0.00 0.00 0.00 0.01 0.05 0.00 0.00 0.00 0.00 0.00 0.00 0.00 0.00 0.00 nan nan nan nan nan nan nan nan nan nan nan nan nan nan nan nan nan nan nan
0.00 0.00 0.00 0.00 0.00 0.00 0.00 0.00 0.00 0.03 0.06 0.00 0.00 0.00 0.00 0.00 0.00 0.00 0.00 nan nan nan nan nan nan nan nan nan nan nan nan nan nan nan nan nan nan nan
0.00 0.00 0.00 0.00 0.00 0.00 0.00 0.00 0.00 0.00 0.07 0.00 0.00 0.00 0.00 0.00 0.00 0.00 0.00 0.00 0.00 nan nan nan nan nan nan nan nan nan nan nan nan nan nan nan nan nan
0.00 0.00 0.00 0.00 0.00 0.00 0.00 0.00 0.00 0.00 0.01 0.00 0.00 0.00 0.00 0.00 0.00 0.00 0.00 0.00 0.00 nan nan nan nan nan nan nan nan nan nan nan nan nan nan nan nan nan
0.00 0.00 0.00 0.00 0.00 0.00 0.00 0.00 0.00 0.00 0.00 0.01 0.00 0.00 0.00 0.00 0.00 0.00 0.00 0.00 0.00 nan nan nan nan nan nan nan nan nan nan nan nan nan nan nan nan nan
0.00 0.00 0.00 0.00 0.00 0.00 0.00 0.00 0.00 0.00 0.00 0.00 0.00 0.00 0.00 0.00 0.00 0.00 0.00 0.00 0.00 0.00 nan nan nan nan nan nan nan nan nan nan nan nan nan nan nan nan
0.01 0.00 0.00 nan nan nan 0.01 0.00 0.00 0.00 0.00 0.00 0.01 0.00 0.01 0.00 0.00 0.00 0.00 0.00 0.00 0.00 0.00 0.00 0.00 0.00 0.00 nan nan nan nan nan nan nan nan nan nan nan
0.04 0.03 0.00 0.00 0.00 nan nan nan nan 0.05 0.05 0.09 0.01 0.02 0.00 0.02 0.00 0.00 0.00 0.01 0.12 0.00 0.00 0.00 0.00 0.00 0.00 0.00 nan nan nan nan nan nan nan nan nan nan
0.04 0.04 0.03 0.00 nan 0.00 nan nan nan nan nan 0.06 0.13 0.07 0.05 0.00 0.00 0.02 0.00 0.02 0.06 0.00 0.01 0.00 0.00 0.00 0.00 0.00 nan nan nan nan nan nan nan nan nan nan
0.04 0.04 0.04 0.04 0.03 0.03 0.03 0.04 0.03 0.01 0.00 0.00 0.01 0.01 0.00 0.00 0.00 0.00 0.00 0.00 0.00 0.01 0.00 0.19 0.00 0.00 0.00 0.00 nan nan nan nan nan nan nan nan nan nan
0.05 0.04 0.03 0.04 nan nan 0.08 0.17 0.06 0.03 nan nan nan nan nan nan nan 0.10 0.34 0.49 0.19 0.01 0.00 0.09 0.00 0.01 0.00 0.00 0.01 nan nan nan nan nan nan nan nan nan
0.10 0.04 nan 0.02 nan nan 0.04 0.12 0.20 0.04 0.01 0.00 0.00 0.00 nan nan nan 0.00 0.21 0.56 0.29 0.29 0.01 0.22 0.07 0.10 0.33 0.04 0.00 0.00 0.00 nan nan nan nan nan nan 0.00
0.17 0.14 0.05 nan nan nan nan 0.07 0.10 0.03 0.08 0.12 0.06 0.03 0.01 0.01 0.00 0.00 0.01 0.05 0.25 0.36 0.00 0.15 0.59 0.33 0.58 0.36 0.09 0.03 0.00 0.00 0.00 0.00 nan nan nan 0.00
0.20 0.09 0.04 nan nan nan nan nan nan nan 0.18 0.25 0.17 0.16 0.09 0.05 0.02 0.01 0.00 0.01 0.00 0.02 0.01 0.00 2.35 0.40 1.56 1.06 0.54 0.10 0.05 0.01 0.01 0.02 0.01 nan nan nan
0.12 0.09 nan nan nan nan nan nan nan 0.20 0.28 0.50 0.34 0.18 0.09 0.07 0.07 0.15 0.06 0.04 0.02 0.01 0.01 0.00 0.35 0.23 0.78 1.39 0.88 0.53 0.23 0.10 0.06 0.07 0.05 0.03 0.03 0.01
nan 0.18 nan 0.10 nan nan 0.10 0.09 0.12 0.10 0.19 0.21 0.23 0.21 0.25 0.36 0.31 0.22 0.57 0.38 0.84 0.56 0.05 0.02 0.02 0.05 1.65 0.68 0.69 0.74 0.35 0.94 0.14 0.09 0.08 0.06 0.03 0.00
nan 0.46 0.67 0.59 0.58 0.45 0.43 0.29 0.31 0.34 0.50 0.45 0.49 0.40 0.36 0.37 0.40 0.31 0.48 0.65 1.24 0.87 0.95 0.73 0.08 0.05 0.34 0.50 1.66 0.42 0.35 0.46 0.13 0.17 0.19 0.18 0.06 0.04
1.61 1.78 1.55 1.26 0.97 0.66 0.54 0.60 0.49 0.48 0.48 0.51 0.57 0.58 0.74 0.79 0.82 0.89 0.80 0.94 1.08 0.67 0.87 0.87 1.03 1.35 0.91 0.43 0.39 0.36 0.25 0.31 0.22 0.17 0.18 0.48 0.19 0.04
1.32 1.23 1.24 1.50 1.64 1.47 1.02 0.88 0.97 0.60 0.27 0.91 0.97 0.89 0.90 0.92 1.01 1.11 0.94 0.70 0.76 0.63 0.63 0.83 1.08 1.35 1.93 1.16 0.22 nan 0.82 0.45 0.45 0.45 0.20 0.33 0.34 0.14
1.02 0.94 1.06 1.31 1.68 1.73 1.70 1.68 1.30 1.12 1.11 1.03 1.06 1.09 1.30 1.61 1.59 1.25 0.94 1.16 0.87 0.93 1.02 0.90 1.03 1.20 2.19 1.76 1.89 0.59 nan 0.52 0.50 0.52 0.84 0.26 0.13 nan
0.90 1.11 0.89 1.18 1.63 1.78 1.80 1.88 1.69 1.63 1.63 1.98 1.45 1.53 1.37 1.61 1.37 0.93 0.82 0.57 nan 1.21 1.40 0.80 0.51 nan 2.20 2.26 2.23 0.61 0.34 nan 0.06 0.84 1.11 1.03 0.75 0.35
0.79 1.00 1.27 1.15 1.34 1.67 1.94 2.17 2.47 2.42 2.16 1.69 1.70 1.56 1.27 1.27 1.48 0.95 0.66 1.04 0.59 0.65 1.03 0.80 0.83 1.05 1.71 1.38 1.03 0.69 0.53 0.31 nan nan nan nan 2.58 3.71
0.84 0.81 1.07 1.24 1.21 1.40 1.76 2.30 2.60 2.55 2.22 2.40 2.27 1.73 1.46 1.86 0.69 0.71 0.72 0.69 0.96 1.15 0.99 1.42 1.02 0.97 0.90 1.05 1.46 1.22 0.87 0.65 0.58 0.71 0.76 nan nan nan
SL_Ratio
nan nan nan nan nan nan nan nan 2.6 4.1 nan nan nan nan nan nan nan nan nan nan nan nan nan nan nan nan nan nan nan nan nan nan nan nan nan nan nan nan
nan nan nan nan nan nan nan nan nan 2.9 4.0 nan nan nan nan nan nan nan nan nan nan nan nan nan nan nan nan nan nan nan nan nan nan nan nan nan nan nan
nan nan nan nan nan nan nan nan nan nan 3.8 nan nan nan nan nan nan nan nan nan nan nan nan nan nan nan nan nan nan nan nan nan nan nan nan nan nan nan
nan nan nan nan nan nan nan nan nan nan 3.3 nan nan nan nan nan nan nan nan nan nan nan nan nan nan nan nan nan nan nan nan nan nan nan nan nan nan nan
nan nan nan nan nan nan nan nan nan nan nan 4.2 nan nan nan nan nan nan nan nan nan nan nan nan nan nan nan nan nan nan nan nan nan nan nan nan nan nan
nan nan nan nan nan nan nan nan nan nan nan 0.0 nan nan nan nan nan nan nan nan nan nan nan nan nan nan nan nan nan nan nan nan nan nan nan nan nan nan
3.5 0.0 nan nan nan nan 3.3 nan nan nan nan nan 4.4 3.3 3.0 nan nan nan nan nan nan nan nan nan nan nan nan nan nan nan nan nan nan nan nan nan nan nan
4.3 3.6 5.0 nan nan nan nan nan nan 4.2 4.2 3.9 4.0 4.1 4.0 3.3 nan nan 0.0 3.6 4.1 nan nan nan nan nan nan nan nan nan nan nan nan nan nan nan nan nan
3.7 3.5 3.5 nan nan nan nan nan nan nan nan 3.9 4.3 4.0 4.4 0.0 nan 4.8 5.0 3.5 3.2 2.5 2.3 1.7 0.0 nan nan nan nan nan nan nan nan nan nan nan nan nan
4.0 3.8 3.6 3.4 3.2 3.0 2.9 2.9 2.9 3.1 nan nan 3.6 3.7 3.3 nan nan 5.0 3.3 3.3 2.5 3.6 0.0 4.3 6.3 6.3 5.0 5.0 nan nan nan nan nan nan nan nan nan nan
4.3 4.2 3.9 3.9 nan nan 4.2 4.9 4.7 4.7 nan nan nan nan nan nan nan 3.4 4.4 4.9 5.0 5.0 5.0 4.6 6.4 6.8 6.4 6.7 5.7 nan nan nan nan nan nan nan nan nan
4.1 4.5 nan 4.0 nan nan 4.1 4.6 6.1 5.2 4.7 4.3 5.0 5.0 nan nan nan nan 3.6 5.0 3.9 3.7 3.0 3.3 2.5 3.0 3.5 2.5 5.0 10.0 nan nan nan nan nan nan nan nan
4.8 4.6 4.3 nan nan nan nan 4.1 4.7 4.7 4.1 4.4 4.8 4.6 4.8 5.0 5.0 5.0 5.4 4.1 4.0 4.0 3.8 3.1 2.9 2.8 3.0 2.8 2.5 2.6 nan nan nan nan nan nan nan nan
4.1 3.9 4.1 nan nan nan nan nan nan nan 4.4 4.8 5.0 5.0 4.4 4.2 4.1 4.7 5.0 6.3 3.8 3.8 6.1 7.5 3.0 3.3 3.1 3.4 3.4 2.5 2.5 2.6 2.5 2.4 2.5 nan nan nan
4.2 3.9 nan nan nan nan nan nan nan 4.7 5.0 5.9 5.7 4.6 3.6 3.4 5.0 4.7 5.2 5.4 4.6 5.2 6.3 5.0 3.0 3.0 3.3 3.7 3.6 2.7 2.7 2.5 2.5 2.5 2.6 2.5 2.6 2.7
nan 4.1 nan 4.1 nan nan 4.4 4.7 4.6 5.0 5.3 5.4 5.2 4.7 4.6 4.7 4.7 3.1 3.2 3.1 3.8 3.4 4.7 3.3 3.1 4.4 3.8 3.7 3.6 4.4 2.7 3.7 2.5 2.5 2.5 2.5 2.6 nan
nan 4.3 4.1 4.7 4.8 5.2 4.5 4.5 5.0 5.1 5.3 4.9 5.1 4.9 4.7 4.6 4.5 3.7 3.5 3.3 4.0 3.7 3.8 2.9 3.0 3.5 3.4 4.5 4.8 4.4 3.9 3.0 2.5 2.5 2.8 3.4 2.5 2.5
5.0 5.3 4.8 4.3 4.7 4.9 5.2 4.7 4.8 4.8 4.7 4.8 4.9 4.9 4.7 4.8 4.5 4.1 4.1 4.6 4.5 4.0 4.0 3.6 3.7 4.3 4.0 3.8 3.5 4.2 3.4 3.3 2.5 2.5 2.7 4.3 3.7 2.6
5.9 5.4 5.6 4.9 4.6 4.3 4.7 4.8 4.9 4.8 5.9 4.1 4.4 4.4 4.4 4.3 4.2 4.0 3.9 4.5 4.5 4.0 3.8 3.9 4.4 4.7 5.6 6.0 3.1 nan 3.8 3.1 3.3 3.8 3.2 3.9 4.0 2.7
6.0 6.5 6.2 6.1 5.5 5.3 4.8 4.8 4.9 4.9 4.7 4.6 4.5 4.3 4.1 4.2 4.2 4.5 4.2 4.2 4.4 4.1 4.0 3.8 4.0 3.9 4.7 4.6 5.0 4.0 nan 3.7 3.7 4.1 4.0 3.7 3.2 nan
6.2 6.3 6.3 6.3 6.0 5.5 5.2 4.6 4.7 4.5 4.4 4.2 4.3 4.3 4.3 4.4 4.5 4.5 4.6 4.8 nan 5.3 5.5 4.5 3.5 nan 3.8 5.1 6.7 5.8 3.6 nan 4.7 3.2 3.1 4.7 4.7 3.8
6.3 6.2 6.1 6.1 6.1 5.7 5.2 4.6 4.3 4.1 4.0 4.2 4.1 4.0 4.1 4.3 4.8 4.6 5.0 4.8 4.5 4.1 4.2 3.7 3.8 3.6 4.2 5.2 5.9 5.9 5.7 3.9 nan nan nan nan 4.4 5.0
6.2 6.1 5.8 5.7 5.6 5.4 5.2 4.7 4.5 4.2 4.1 3.7 3.8 4.0 4.0 4.9 4.5 4.8 4.7 4.6 4.6 4.6 4.2 5.2 4.5 4.3 4.9 4.7 5.2 6.1 6.3 5.9 4.8 4.6 4.9 nan nan nan